Temperature
27 24 24 24 25 26 26 26 26 26 27 27 26 25 26 26 25 25 25 25 24 24 24 24 23 23 23 22 22 22 21 21 21 20 20 20 20 20 20 20 20 19 19 19
25 24 26 27 27 27 26 26 25 26 27 27 25 25 26 26 25 25 25 25 24 24 23 23 23 23 23 22 22 22 21 21 21 21 20 20 20 20 20 20 19 19 19 19
25 26 28 28 27 27 26 26 26 26 27 27 26 25 25 25 26 25 25 25 25 24 23 23 23 23 23 22 22 22 21 21 21 20 20 20 20 20 20 20 19 19 19 19
26 27 28 28 27 27 26 27 27 27 25 24 25 24 24 24 24 24 24 24 24 24 24 23 23 23 22 22 22 22 21 21 21 20 20 20 20 20 20 20 19 19 19 19
26 27 28 28 28 28 27 28 27 27 25 23 24 23 23 23 23 23 23 24 24 24 24 23 23 23 22 22 22 22 21 21 21 20 20 20 20 20 19 19 19 19 19 19
26 28 28 28 29 29 28 26 25 23 22 23 23 23 23 23 23 23 23 24 24 24 24 24 23 23 23 22 22 22 21 21 21 20 20 20 20 20 19 19 19 19 19 19
26 27 28 29 27 27 26 24 23 23 22 22 23 23 22 23 24 24 24 24 24 24 24 23 23 23 23 22 22 22 21 21 21 20 20 20 20 19 19 19 19 19 19 19
24 25 27 28 27 27 26 24 23 23 22 22 23 23 23 24 24 25 24 24 24 23 23 23 23 23 23 22 22 22 21 21 21 20 20 20 20 19 19 19 19 19 19 19
24 25 28 29 29 28 27 25 23 22 22 22 22 23 23 24 24 24 24 24 23 23 23 23 23 22 22 22 22 21 21 21 21 20 20 20 20 19 19 19 19 19 19 18
24 25 26 28 28 28 27 25 22 22 22 22 23 23 22 23 22 22 23 23 23 23 22 22 22 22 22 22 22 21 21 21 21 20 20 20 19 19 19 19 19 19 19 18
24 24 25 26 26 27 27 25 22 20 21 21 22 22 24 23 22 22 22 22 22 22 22 22 22 22 22 22 21 21 21 21 20 20 20 20 19 19 19 19 19 19 18 18
24 22 23 24 26 27 26 25 22 22 22 20 21 22 24 23 23 22 22 22 23 23 23 22 22 22 22 22 21 21 21 21 20 20 20 19 19 19 19 19 19 18 18 18
25 22 22 23 24 25 26 26 23 21 20 20 21 22 23 22 22 23 22 22 22 23 23 22 22 22 22 22 21 21 21 21 20 20 20 19 19 19 19 19 18 18 18 18
25 21 22 23 23 24 25 26 25 22 21 21 21 22 22 22 22 22 23 23 22 22 22 22 22 22 22 22 22 21 21 21 20 20 20 19 19 19 19 18 18 18 18 18
23 23 23 23 25 26 26 26 25 24 22 22 22 22 22 22 21 22 23 22 22 22 22 22 22 22 22 22 21 21 21 20 20 20 20 19 19 19 19 18 18 18 18 17
21 23 23 24 25 26 25 25 25 25 25 23 23 22 22 22 22 22 22 22 22 22 22 22 22 22 22 21 21 21 21 20 20 20 19 19 19 18 18 18 18 17 17 17
20 21 21 22 23 24 23 24 24 24 24 23 22 22 21 21 21 21 21 21 21 22 22 22 21 21 21 21 21 21 20 20 19 19 19 18 18 18 18 18 17 17 17 17
21 20 19 20 22 23 22 23 24 23 23 22 22 21 21 21 21 22 22 22 22 21 22 22 21 21 21 21 21 20 20 20 19 19 18 18 18 18 18 17 17 17 17 17
20 20 19 19 21 22 22 23 23 23 22 22 21 21 21 22 21 21 22 22 22 22 21 21 21 21 21 20 20 20 19 19 19 19 18 18 18 18 17 17 17 17 17 16
19 18 18 19 21 21 21 22 23 22 21 21 21 20 21 21 19 19 22 22 22 22 21 21 21 21 20 20 20 20 19 18 18 18 18 18 17 17 17 17 16 16 16 16
19 18 18 18 19 19 20 21 23 21 20 21 21 21 21 20 20 21 22 22 22 21 21 21 20 20 20 20 20 19 19 18 18 18 17 17 17 17 17 16 16 16 16 15
18 17 17 17 18 19 20 20 20 19 20 21 21 21 21 21 21 21 21 21 21 21 20 20 20 20 19 19 19 19 18 18 17 17 17 17 16 16 16 16 16 15 15 15
17 17 16 17 17 18 20 20 20 21 20 20 20 21 21 20 20 20 20 20 20 20 20 20 19 19 19 19 18 18 18 17 17 17 16 16 16 16 15 15 15 15 15 15
17 17 16 16 17 18 19 20 20 20 20 20 20 20 20 20 19 19 19 19 19 19 19 19 19 18 18 18 17 17 17 17 16 16 16 16 15 15 15 15 15 15 14 14
17 16 16 16 17 18 19 19 20 20 20 20 20 20 19 19 19 19 19 19 19 18 18 18 18 18 17 17 17 17 16 16 16 16 15 15 15 15 15 14 14 14 14 14
15 16 16 16 17 16 18 19 19 19 19 19 19 19 19 19 19 18 18 18 18 18 18 18 17 17 17 17 16 16 16 15 15 15 15 15 15 14 14 14 14 14 14 14
Wind_Speed
2 2 5 8 7 7 5 4 5 6 5 2 5 6 8 7 8 8 9 10 11 11 11 12 11 11 11 10 9 8 8 7 6 4 4 4 3 2 2 2 3 3 4 4
3 6 11 8 6 5 4 5 5 6 5 2 3 4 7 9 10 11 11 10 11 9 9 11 11 11 11 11 10 9 8 7 6 5 4 3 3 2 2 1 1 3 3 3
7 9 7 4 5 4 5 6 6 5 3 2 2 2 3 4 5 7 8 10 11 14 14 13 11 11 11 12 11 10 8 7 6 6 4 3 3 2 1 1 1 1 3 4
5 7 6 6 6 5 6 7 5 3 1 2 2 2 4 4 4 6 7 8 10 12 13 12 12 11 11 11 11 10 9 7 6 6 6 6 4 3 3 2 2 1 2 3
6 5 5 7 8 6 7 6 3 2 2 1 1 2 5 3 5 7 8 8 9 11 14 14 13 12 10 10 10 9 9 7 6 6 6 6 4 3 2 2 2 1 1 1
8 6 5 7 7 5 4 1 4 4 5 2 3 3 5 5 9 10 9 10 10 11 12 12 11 11 9 8 9 9 9 7 6 6 6 6 6 5 4 3 3 2 1 1
7 8 5 3 2 3 2 4 4 5 4 4 4 2 6 6 6 10 11 10 10 11 11 11 12 11 11 10 9 9 10 8 7 6 5 5 6 5 5 5 4 3 2 1
4 7 5 4 6 5 3 8 7 4 4 4 3 3 5 4 4 6 9 10 8 8 9 11 11 11 11 11 10 9 10 8 8 7 6 5 5 4 4 4 4 4 3 3
6 7 6 4 3 6 2 3 7 7 2 1 4 3 3 1 4 5 6 7 8 9 10 10 10 9 9 10 10 11 10 8 8 7 6 5 5 5 4 4 4 3 3 3
7 4 6 4 2 1 6 5 5 5 3 2 4 3 4 3 4 5 7 8 8 9 10 9 9 9 8 9 9 9 9 8 7 7 7 6 5 5 5 4 4 4 3 3
5 4 6 4 2 5 1 2 4 4 5 6 3 6 5 8 7 7 6 7 9 10 11 11 10 10 10 8 8 8 8 7 7 7 6 6 6 5 4 4 4 4 3 3
5 5 4 7 7 6 6 6 7 5 3 5 4 6 3 6 7 7 6 5 6 8 9 10 11 11 10 9 8 8 8 8 8 7 6 6 5 5 5 5 4 4 4 3
4 6 1 7 7 4 0 2 4 6 5 4 4 5 1 3 4 6 6 6 6 7 8 9 9 10 10 9 8 8 8 8 7 7 7 6 5 5 5 5 5 4 4 3
6 5 7 8 7 4 3 3 2 6 4 4 6 6 3 4 6 6 6 6 6 8 8 8 8 8 9 9 9 8 8 7 7 6 6 6 5 6 5 4 4 4 4 4
5 4 4 5 4 1 2 2 2 3 7 8 8 7 8 8 9 8 7 7 8 8 8 9 9 8 8 7 7 7 6 6 6 6 5 5 5 5 4 4 3 3 3 4
4 3 1 3 4 2 3 4 2 2 3 5 6 4 5 5 5 6 7 8 8 9 9 8 8 8 8 7 7 6 5 6 6 6 5 4 4 4 4 4 4 3 3 2
2 3 2 2 4 4 3 4 1 1 1 5 5 6 5 4 5 7 7 7 8 8 9 10 8 8 8 6 6 6 6 5 6 5 5 4 4 4 4 4 3 3 3 3
3 3 3 2 3 2 6 3 1 3 2 3 5 5 8 7 5 4 5 7 7 8 8 7 7 6 6 6 6 6 5 6 6 5 4 4 4 4 3 3 3 3 3 3
4 5 4 4 2 3 4 4 1 2 1 2 6 7 6 8 7 2 3 6 7 8 7 6 6 6 6 6 6 7 5 4 4 4 4 4 5 4 3 3 3 3 2 2
6 6 5 4 3 4 5 7 3 4 1 1 4 7 8 7 4 4 4 5 6 6 6 6 5 5 6 6 6 7 5 5 5 6 6 5 5 5 4 4 3 2 2 3
5 5 3 3 3 3 5 8 3 2 5 3 3 6 6 4 6 6 5 4 5 6 7 7 6 5 5 5 6 6 5 5 5 5 4 4 4 4 4 3 3 2 2 2
2 2 1 2 2 4 6 4 1 4 2 2 2 3 4 3 4 5 6 6 6 6 6 6 6 5 5 6 7 5 4 4 4 4 4 3 4 4 3 3 2 2 2 1
3 6 5 5 5 5 2 1 1 2 3 2 3 2 4 5 5 5 5 6 6 6 6 6 6 6 5 5 6 6 4 4 4 4 3 3 2 2 3 3 3 2 2 2
2 1 3 1 3 3 1 1 3 4 3 2 3 4 5 5 5 5 5 5 5 5 6 5 6 6 5 4 4 4 4 4 4 3 2 2 2 2 2 2 2 2 2 2
3 0 2 1 2 2 3 2 1 2 3 4 3 3 4 5 5 6 5 4 4 4 4 5 6 5 5 4 3 3 3 4 3 2 1 1 2 2 1 1 1 2 3 4
2 3 4 4 5 3 3 3 1 3 3 3 4 4 3 4 5 6 5 4 4 4 4 4 5 5 4 4 3 2 2 3 3 2 1 1 1 1 1 1 1 2 1 2
Wind_Direction
258 95 237 239 223 218 218 253 266 270 257 176 180 188 190 172 161 169 175 170 166 167 163 154 150 150 150 150 150 152 152 160 151 145 149 148 154 155 157 155 146 146 146 143
358 262 241 237 240 239 240 253 260 280 270 192 189 197 186 179 175 176 177 178 169 159 157 159 156 155 158 159 158 155 159 164 165 166 162 157 152 153 164 151 128 147 146 146
217 246 242 219 245 250 262 229 235 241 290 21 96 324 221 192 175 171 176 176 170 169 166 166 164 162 162 165 165 164 163 161 165 158 139 131 103 81 82 102 154 176 153 147
249 248 237 230 238 215 255 243 223 201 130 275 150 217 270 210 196 190 183 177 174 172 164 165 165 165 171 173 167 161 161 160 158 153 150 153 155 165 190 174 173 172 147 150
261 239 233 239 242 221 227 237 229 184 141 25 354 150 265 183 192 204 189 182 184 172 166 169 169 170 171 171 168 165 159 161 160 157 159 157 159 167 159 137 146 165 172 146
256 258 230 234 249 219 202 355 24 49 73 10 265 169 265 218 194 187 180 180 181 176 171 167 165 160 162 166 167 162 160 166 167 161 159 157 156 155 147 154 162 177 181 166
296 289 262 230 286 314 102 90 25 356 9 265 267 161 245 244 186 175 173 177 183 177 170 162 162 165 166 169 174 169 165 168 168 162 165 164 158 159 166 174 173 169 170 168
238 282 263 228 197 210 209 142 158 198 224 279 316 230 255 239 178 160 163 169 170 170 166 167 170 171 172 168 172 171 169 170 171 168 171 168 163 165 174 175 171 176 183 188
198 250 274 252 212 160 181 190 165 143 148 312 283 274 306 107 126 149 153 149 166 175 172 170 171 170 170 170 176 175 168 170 175 176 172 172 175 175 174 173 172 177 176 173
173 238 286 296 9 312 167 162 96 115 149 246 283 264 228 199 173 160 160 159 165 172 168 165 165 165 169 171 169 166 165 172 174 176 180 187 190 185 177 172 175 170 168 170
167 178 295 339 201 221 189 125 119 126 153 158 226 266 221 187 179 162 166 170 168 172 170 164 164 166 169 167 164 166 168 170 177 182 183 187 190 183 171 173 178 176 178 176
179 150 245 265 263 224 183 180 149 153 212 164 168 260 271 176 169 150 150 160 162 165 167 165 166 170 173 170 169 171 172 176 182 184 179 181 180 175 172 177 184 181 182 187
152 127 105 333 335 342 324 206 158 139 131 154 164 248 300 142 146 141 147 157 156 148 151 158 165 173 174 173 174 177 178 180 179 174 171 174 173 172 179 185 186 185 184 187
137 122 162 198 226 247 280 295 174 136 155 186 201 212 233 168 159 161 168 159 150 148 150 152 161 171 173 173 176 177 179 178 172 170 172 177 182 182 184 182 178 181 182 183
107 154 189 215 231 249 304 304 256 184 183 179 197 193 214 194 177 173 169 159 144 144 149 154 158 167 170 170 171 170 172 171 169 166 170 183 182 176 172 169 177 178 181 189
66 146 149 320 330 357 349 333 301 249 195 167 155 207 226 177 154 155 157 150 148 152 152 153 157 160 164 166 165 161 162 164 160 159 166 169 170 172 172 176 179 175 183 189
62 105 115 265 315 24 323 290 233 265 206 160 182 208 167 155 166 168 162 155 156 155 151 155 161 165 162 162 156 155 159 150 150 155 160 163 160 169 181 183 175 187 195 187
135 112 135 149 56 225 249 282 99 99 45 113 147 163 159 157 151 145 159 161 159 157 157 158 156 150 152 148 143 143 140 142 146 149 159 168 164 168 172 165 176 201 195 194
136 138 123 125 162 256 295 305 304 139 10 91 133 130 128 116 83 51 167 163 161 159 157 155 151 144 140 146 154 142 140 145 152 162 177 180 174 170 166 175 193 201 193 204
56 93 115 126 144 219 263 299 290 98 49 332 121 133 137 120 124 222 197 154 148 140 143 142 140 134 141 153 150 140 153 169 185 192 190 183 174 171 177 193 205 202 190 209
19 33 86 134 173 245 285 311 18 121 225 235 144 144 137 153 184 190 165 149 149 142 143 141 141 143 153 153 140 141 157 183 194 183 175 172 174 187 189 194 198 191 203 217
156 121 147 113 138 253 304 7 78 223 212 134 120 135 127 140 133 131 129 130 128 127 129 136 139 141 142 141 138 145 167 185 173 161 160 172 184 193 183 176 193 199 199 219
174 178 175 178 206 245 273 213 240 126 106 111 114 102 121 118 115 118 124 129 129 133 136 138 134 131 133 141 145 152 170 159 152 150 158 176 181 186 176 173 189 204 197 199
299 115 121 150 263 280 320 45 59 77 83 87 109 112 110 114 119 127 131 127 125 134 137 132 128 133 143 148 145 153 156 147 140 152 173 176 174 199 208 200 193 194 204 213
253 160 132 192 261 347 346 11 54 56 73 79 89 108 108 120 127 129 130 127 126 126 131 135 135 144 152 142 135 140 136 129 132 146 159 182 195 200 208 235 237 218 222 216
246 182 173 208 217 186 237 275 50 75 72 86 84 68 92 107 118 116 120 120 118 117 120 122 126 128 133 131 130 131 132 134 139 146 160 186 194 187 180 182 339 352 291 281
Height
1487 1494 1499 1494 1493 1494 1496 1499 1500 1493 1484 1487 1490 1491 1489 1489 1491 1493 1495 1497 1498 1500 1503 1505 1507 1510 1512 1514 1515 1517 1519 1520 1522 1523 1524 1525 1526 1527 1528 1528 1529 1529 1529 1529
1493 1496 1486 1483 1485 1488 1492 1499 1499 1492 1482 1486 1490 1491 1487 1487 1488 1490 1492 1495 1497 1500 1502 1504 1506 1508 1510 1512 1514 1516 1518 1520 1521 1522 1523 1524 1525 1526 1527 1528 1528 1528 1529 1529
1494 1486 1478 1481 1485 1489 1492 1495 1495 1494 1487 1485 1491 1497 1491 1488 1487 1489 1490 1492 1495 1497 1499 1502 1504 1506 1508 1510 1513 1515 1517 1519 1520 1522 1523 1524 1525 1526 1527 1527 1527 1528 1528 1528
1486 1479 1478 1481 1484 1486 1495 1482 1483 1487 1496 1503 1497 1514 1498 1490 1489 1488 1489 1491 1493 1495 1498 1500 1503 1505 1507 1509 1511 1514 1516 1518 1519 1521 1522 1523 1523 1524 1525 1526 1526 1527 1527 1527
1485 1477 1478 1481 1478 1478 1483 1476 1480 1484 1494 1504 1501 1511 1505 1492 1493 1490 1489 1490 1491 1493 1495 1498 1500 1503 1506 1509 1511 1513 1515 1517 1518 1520 1521 1522 1522 1523 1524 1525 1525 1526 1526 1526
1476 1472 1472 1472 1469 1470 1473 1479 1484 1490 1502 1518 1507 1511 1509 1494 1488 1487 1487 1488 1489 1491 1493 1496 1499 1502 1505 1508 1510 1512 1514 1515 1517 1519 1520 1521 1521 1522 1523 1523 1524 1524 1525 1525
1483 1473 1468 1467 1473 1472 1475 1495 1515 1519 1526 1523 1503 1507 1505 1484 1479 1480 1482 1484 1486 1489 1492 1494 1497 1500 1502 1505 1508 1510 1512 1514 1516 1518 1519 1520 1521 1521 1522 1522 1523 1523 1523 1523
1495 1491 1470 1464 1469 1476 1477 1489 1516 1528 1530 1521 1505 1507 1494 1477 1476 1477 1478 1480 1484 1488 1490 1493 1495 1497 1500 1502 1505 1508 1510 1512 1514 1516 1518 1519 1519 1520 1521 1521 1522 1522 1522 1522
1491 1488 1465 1460 1459 1465 1476 1484 1486 1507 1514 1522 1514 1501 1488 1477 1477 1477 1479 1481 1484 1487 1489 1492 1494 1497 1498 1501 1504 1506 1508 1510 1512 1514 1516 1517 1518 1519 1519 1520 1520 1520 1521 1521
1476 1485 1469 1461 1460 1461 1466 1474 1491 1507 1522 1528 1517 1506 1500 1485 1481 1479 1479 1480 1483 1485 1488 1491 1494 1496 1498 1500 1502 1504 1507 1508 1510 1512 1513 1515 1516 1517 1517 1518 1518 1518 1519 1519
1467 1482 1478 1470 1471 1471 1470 1476 1487 1501 1506 1522 1526 1511 1479 1478 1477 1479 1480 1480 1481 1484 1486 1488 1492 1494 1496 1499 1501 1503 1505 1507 1509 1510 1511 1512 1513 1515 1516 1516 1516 1517 1517 1517
1464 1478 1487 1476 1462 1457 1462 1470 1482 1501 1506 1508 1516 1508 1472 1473 1474 1475 1479 1481 1481 1482 1485 1487 1490 1494 1496 1498 1500 1502 1503 1505 1507 1508 1509 1510 1512 1513 1514 1514 1514 1515 1515 1515
1461 1478 1495 1491 1480 1467 1466 1466 1471 1483 1497 1506 1512 1502 1473 1473 1473 1475 1477 1479 1480 1481 1484 1487 1489 1491 1494 1496 1497 1500 1501 1503 1505 1506 1508 1509 1510 1511 1511 1512 1512 1513 1513 1513
1453 1473 1486 1495 1488 1473 1470 1467 1467 1479 1496 1500 1496 1490 1478 1474 1474 1474 1476 1477 1479 1481 1483 1485 1487 1489 1491 1494 1496 1497 1499 1501 1503 1504 1505 1506 1508 1508 1509 1510 1510 1510 1510 1511
1454 1470 1470 1470 1465 1462 1464 1466 1465 1471 1477 1486 1484 1482 1475 1470 1471 1472 1473 1475 1477 1480 1482 1484 1485 1488 1490 1492 1494 1495 1498 1499 1501 1502 1503 1504 1506 1506 1507 1507 1507 1508 1508 1508
1457 1466 1467 1469 1462 1461 1466 1464 1463 1464 1465 1470 1473 1476 1466 1467 1468 1471 1472 1473 1476 1478 1480 1482 1484 1486 1488 1490 1492 1494 1496 1498 1499 1500 1501 1502 1503 1504 1504 1505 1505 1505 1506 1506
1461 1467 1476 1480 1469 1467 1477 1467 1464 1465 1462 1465 1473 1469 1464 1466 1468 1469 1470 1472 1474 1476 1478 1481 1483 1485 1487 1488 1490 1492 1495 1496 1498 1498 1499 1500 1501 1501 1501 1502 1503 1503 1503 1503
1460 1468 1478 1481 1478 1489 1476 1459 1458 1461 1461 1459 1460 1460 1461 1464 1466 1468 1469 1470 1473 1475 1477 1479 1481 1484 1486 1487 1489 1491 1493 1494 1495 1496 1496 1498 1498 1498 1499 1499 1500 1500 1500 1500
1452 1464 1477 1486 1488 1483 1470 1461 1459 1462 1466 1461 1460 1461 1462 1464 1467 1470 1470 1471 1472 1473 1476 1478 1480 1482 1484 1486 1488 1489 1491 1492 1493 1493 1493 1494 1495 1496 1496 1496 1497 1497 1497 1497
1455 1459 1473 1482 1486 1490 1476 1460 1456 1459 1471 1463 1460 1461 1463 1464 1473 1472 1469 1470 1471 1472 1475 1477 1479 1481 1482 1484 1486 1487 1488 1489 1490 1491 1491 1492 1493 1493 1493 1494 1494 1495 1494 1494
1469 1472 1477 1482 1485 1481 1466 1458 1456 1473 1473 1461 1460 1459 1461 1463 1465 1467 1467 1468 1470 1471 1473 1475 1477 1479 1480 1482 1484 1485 1485 1486 1488 1489 1489 1490 1491 1491 1491 1492 1492 1492 1492 1491
1474 1479 1482 1483 1487 1484 1462 1460 1464 1466 1460 1459 1459 1459 1459 1461 1462 1463 1465 1466 1469 1471 1472 1473 1476 1477 1478 1480 1481 1482 1483 1484 1485 1486 1486 1487 1488 1489 1489 1489 1489 1489 1489 1488
1469 1470 1473 1476 1477 1467 1462 1461 1461 1459 1459 1459 1460 1460 1460 1460 1461 1462 1464 1465 1467 1469 1471 1473 1474 1475 1476 1478 1479 1479 1480 1481 1483 1483 1484 1485 1485 1486 1486 1486 1486 1486 1485 1485
1464 1462 1467 1469 1466 1463 1462 1461 1460 1460 1460 1460 1461 1461 1460 1460 1461 1461 1464 1465 1467 1468 1469 1471 1472 1473 1474 1476 1477 1477 1478 1479 1480 1481 1481 1482 1482 1483 1483 1483 1483 1483 1482 1482
1464 1463 1466 1467 1464 1462 1461 1460 1460 1459 1460 1460 1461 1461 1460 1460 1461 1462 1463 1465 1466 1467 1468 1469 1470 1470 1472 1473 1475 1475 1475 1476 1477 1478 1478 1479 1479 1479 1479 1480 1480 1480 1480 1480
1461 1462 1465 1466 1461 1462 1461 1460 1459 1459 1459 1459 1459 1459 1460 1460 1461 1462 1463 1465 1466 1466 1466 1468 1469 1470 1471 1472 1472 1473 1474 1474 1475 1475 1476 1476 1476 1476 1476 1477 1477 1477 1477 1477